When you browse on this site, cookies collect data to enhance your experience and personalize the content and advertising you see.
Visit our Privacy Policy to learn more. By continuing to use the site, you agree to this use of cookies and data.

Meteo pe oră la Kaposvar

Astăzi, 8 August, Sâmbătă

Timp Temperatura Precipitaţii Vânt Presiune Umiditate
00:00 +23°C° 0.2 mm 2 m/s 749 mmHg 78%
01:00 +21°C° 0.2 mm 2 m/s 749 mmHg 80%
02:00 +21°C° 0 mm 2 m/s 749 mmHg 81%
03:00 +20°C° 0 mm 2 m/s 749 mmHg 82%
04:00 +20°C° 0 mm 2 m/s 749 mmHg 83%
05:00 +21°C° 0 mm 2 m/s 749 mmHg 81%
06:00 +22°C° 0 mm 3 m/s 749 mmHg 78%
07:00 +24°C° 0 mm 3 m/s 750 mmHg 75%
08:00 +26°C° 0 mm 3 m/s 750 mmHg 70%
09:00 +27°C° 0 mm 3 m/s 750 mmHg 64%
10:00 +29°C° 0 mm 3 m/s 750 mmHg 59%
11:00 +30°C° 0 mm 3 m/s 750 mmHg 56%
12:00 +31°C° 0 mm 3 m/s 749 mmHg 52%
13:00 +33°C° 0 mm 3 m/s 749 mmHg 49%
14:00 +33°C° 0 mm 3 m/s 749 mmHg 49%
15:00 +32°C° 0 mm 2 m/s 748 mmHg 50%
16:00 +32°C° 0 mm 2 m/s 748 mmHg 50%
17:00 +30°C° 0 mm 2 m/s 748 mmHg 55%
18:00 +29°C° 0 mm 1 m/s 748 mmHg 61%
19:00 +27°C° 0 mm 1 m/s 748 mmHg 67%
20:00 +26°C° 0.2 mm 1 m/s 748 mmHg 68%
21:00 +25°C° 0.2 mm 1 m/s 748 mmHg 69%
22:00 +25°C° 0.2 mm 1 m/s 748 mmHg 70%
23:00 +24°C° 0.1 mm 1 m/s 748 mmHg 72%

Mâine, 9 August, Duminică

Timp Temperatura Precipitaţii Vânt Presiune Umiditate
00:00 +24°C° 0.1 mm 1 m/s 748 mmHg 73%
01:00 +23°C° 0.1 mm 1 m/s 748 mmHg 75%
02:00 +23°C° 0 mm 1 m/s 748 mmHg 74%
03:00 +22°C° 0 mm 1 m/s 748 mmHg 74%
04:00 +22°C° 0 mm 1 m/s 747 mmHg 74%
05:00 +23°C° 0 mm 1 m/s 748 mmHg 72%
06:00 +24°C° 0 mm 1 m/s 748 mmHg 70%
07:00 +25°C° 0 mm 1 m/s 748 mmHg 68%
08:00 +26°C° 0 mm 1 m/s 748 mmHg 63%
09:00 +28°C° 0 mm 2 m/s 748 mmHg 58%
10:00 +30°C° 0 mm 2 m/s 748 mmHg 53%
11:00 +31°C° 0 mm 2 m/s 748 mmHg 50%
12:00 +31°C° 0 mm 2 m/s 747 mmHg 46%
13:00 +32°C° 0 mm 2 m/s 747 mmHg 43%
14:00 +32°C° 0 mm 2 m/s 747 mmHg 44%
15:00 +32°C° 0 mm 1 m/s 747 mmHg 44%
16:00 +32°C° 0 mm 1 m/s 746 mmHg 45%
17:00 +30°C° 0 mm 1 m/s 746 mmHg 50%
18:00 +29°C° 0 mm 1 m/s 746 mmHg 56%
19:00 +27°C° 0 mm 1 m/s 746 mmHg 62%
20:00 +26°C° 0 mm 1 m/s 746 mmHg 63%
21:00 +26°C° 0 mm 1 m/s 747 mmHg 63%
22:00 +25°C° 0 mm 1 m/s 747 mmHg 64%
23:00 +24°C° 0.1 mm 1 m/s 747 mmHg 67%

Poimâine, 10 August, Luni

Timp Temperatura Precipitaţii Vânt Presiune Umiditate
00:00 +24°C° 0.1 mm 1 m/s 746 mmHg 70%
01:00 +23°C° 0.1 mm 1 m/s 746 mmHg 73%
02:00 +23°C° 0 mm 1 m/s 746 mmHg 74%
03:00 +22°C° 0 mm 1 m/s 746 mmHg 76%
04:00 +22°C° 0 mm 1 m/s 746 mmHg 78%
05:00 +23°C° 0 mm 1 m/s 746 mmHg 76%
06:00 +24°C° 0 mm 1 m/s 746 mmHg 74%
07:00 +25°C° 0 mm 1 m/s 747 mmHg 73%
08:00 +27°C° 0 mm 1 m/s 747 mmHg 67%
09:00 +29°C° 0 mm 1 m/s 747 mmHg 60%
10:00 +31°C° 0 mm 1 m/s 747 mmHg 54%
11:00 +31°C° 0 mm 2 m/s 747 mmHg 51%
12:00 +32°C° 0 mm 2 m/s 746 mmHg 47%
13:00 +34°C° 0 mm 2 m/s 746 mmHg 44%
14:00 +34°C° 0 mm 2 m/s 746 mmHg 44%
15:00 +32°C° 0 mm 2 m/s 745 mmHg 45%
16:00 +32°C° 0 mm 2 m/s 745 mmHg 46%
17:00 +31°C° 0 mm 1 m/s 745 mmHg 51%
18:00 +29°C° 0 mm 1 m/s 745 mmHg 56%
19:00 +27°C° 0 mm 1 m/s 745 mmHg 62%
20:00 +26°C° 0.2 mm 1 m/s 745 mmHg 64%
21:00 +25°C° 0.2 mm 1 m/s 746 mmHg 66%
22:00 +22°C° 0.2 mm 0 m/s 746 mmHg 69%
23:00 +22°C° 0.2 mm 0 m/s 746 mmHg 71%

11 August, Marţi

Timp Temperatura Precipitaţii Vânt Presiune Umiditate
00:00 +21°C° 0.2 mm 0 m/s 746 mmHg 73%
01:00 +21°C° 0.2 mm 0 m/s 746 mmHg 76%
02:00 +21°C° 0.1 mm 0 m/s 746 mmHg 76%
03:00 +20°C° 0.1 mm 0 m/s 746 mmHg 77%
04:00 +20°C° 0.1 mm 0 m/s 746 mmHg 77%
05:00 +21°C° 0 mm 0 m/s 746 mmHg 75%
06:00 +24°C° 0 mm 1 m/s 746 mmHg 73%
07:00 +25°C° 0 mm 1 m/s 747 mmHg 72%
08:00 +27°C° 0 mm 1 m/s 747 mmHg 65%
09:00 +29°C° 0 mm 1 m/s 747 mmHg 59%
10:00 +31°C° 0 mm 1 m/s 747 mmHg 53%
11:00 +32°C° 0 mm 1 m/s 747 mmHg 49%
12:00 +33°C° 0 mm 1 m/s 747 mmHg 46%
13:00 +34°C° 0 mm 1 m/s 746 mmHg 43%
14:00 +33°C° 0 mm 1 m/s 746 mmHg 43%
15:00 +33°C° 0 mm 1 m/s 746 mmHg 44%
16:00 +32°C° 0 mm 1 m/s 746 mmHg 44%
17:00 +31°C° 0 mm 1 m/s 746 mmHg 49%
18:00 +29°C° 0 mm 1 m/s 746 mmHg 54%
19:00 +28°C° 0 mm 1 m/s 745 mmHg 59%
20:00 +27°C° 0 mm 1 m/s 746 mmHg 61%
21:00 +26°C° 0 mm 1 m/s 746 mmHg 63%
22:00 +25°C° 0 mm 1 m/s 746 mmHg 65%
23:00 +25°C° 0.1 mm 1 m/s 746 mmHg 68%

12 August, Miercuri

Timp Temperatura Precipitaţii Vânt Presiune Umiditate
00:00 +24°C° 0.1 mm 1 m/s 746 mmHg 70%
01:00 +23°C° 0.1 mm 1 m/s 746 mmHg 73%
02:00 +23°C° 0.3 mm 1 m/s 746 mmHg 75%
03:00 +23°C° 0.3 mm 1 m/s 746 mmHg 78%
04:00 +22°C° 0.3 mm 1 m/s 746 mmHg 81%
05:00 +23°C° 0.1 mm 1 m/s 746 mmHg 80%
06:00 +24°C° 0.1 mm 1 m/s 747 mmHg 79%
07:00 +25°C° 0.1 mm 1 m/s 747 mmHg 78%
08:00 +26°C° 0 mm 1 m/s 747 mmHg 71%
09:00 +28°C° 0 mm 1 m/s 747 mmHg 63%
10:00 +30°C° 0 mm 1 m/s 747 mmHg 55%
11:00 +31°C° 0.1 mm 1 m/s 747 mmHg 52%
12:00 +31°C° 0.1 mm 2 m/s 747 mmHg 49%
13:00 +32°C° 0.1 mm 2 m/s 747 mmHg 45%
14:00 +32°C° 0 mm 2 m/s 747 mmHg 45%
15:00 +32°C° 0 mm 2 m/s 747 mmHg 45%
16:00 +32°C° 0 mm 2 m/s 746 mmHg 44%
17:00 +30°C° 0 mm 2 m/s 746 mmHg 49%
18:00 +28°C° 0 mm 2 m/s 746 mmHg 54%
19:00 +27°C° 0 mm 2 m/s 747 mmHg 59%
20:00 +26°C° 0 mm 2 m/s 747 mmHg 60%
21:00 +25°C° 0 mm 2 m/s 747 mmHg 61%
22:00 +24°C° 0 mm 2 m/s 747 mmHg 61%
23:00 +23°C° 0 mm 2 m/s 747 mmHg 63%

13 August, Joi

Timp Temperatura Precipitaţii Vânt Presiune Umiditate
00:00 +23°C° 0 mm 1 m/s 747 mmHg 64%
01:00 +22°C° 0 mm 1 m/s 747 mmHg 65%
02:00 +22°C° 0 mm 1 m/s 747 mmHg 66%
03:00 +20°C° 0 mm 2 m/s 747 mmHg 67%
04:00 +20°C° 0 mm 2 m/s 747 mmHg 68%
05:00 +20°C° 0 mm 2 m/s 747 mmHg 66%
06:00 +21°C° 0 mm 2 m/s 748 mmHg 64%
07:00 +23°C° 0 mm 2 m/s 748 mmHg 62%
08:00 +25°C° 0 mm 2 m/s 748 mmHg 57%
09:00 +27°C° 0 mm 2 m/s 748 mmHg 51%
10:00 +28°C° 0 mm 2 m/s 748 mmHg 46%
11:00 +29°C° 0 mm 2 m/s 748 mmHg 44%
12:00 +30°C° 0 mm 2 m/s 747 mmHg 42%
13:00 +31°C° 0 mm 2 m/s 747 mmHg 41%
14:00 +32°C° 0 mm 2 m/s 747 mmHg 40%
15:00 +32°C° 0 mm 2 m/s 747 mmHg 40%
16:00 +32°C° 0 mm 2 m/s 746 mmHg 40%
17:00 +30°C° 0 mm 2 m/s 746 mmHg 46%
18:00 +28°C° 0 mm 2 m/s 746 mmHg 53%
19:00 +26°C° 0 mm 2 m/s 746 mmHg 60%
20:00 +25°C° 0 mm 2 m/s 746 mmHg 61%
21:00 +24°C° 0 mm 2 m/s 746 mmHg 62%
22:00 +23°C° 0 mm 2 m/s 746 mmHg 64%
23:00 +23°C° 0 mm 2 m/s 746 mmHg 64%
Arată mai mult